[[{"header":{"parameterUnit":"m.s-1","parameterCategory":1,"la1":30.2991,"la2":30.254,"lo1":-89.0895,"lo2":-89.0444,"dy":0.0017,"dx":0.0017,"nx":28,"ny":28,"refTime":"2023-09-10T21:00:00:Z","depth":0,"parameterNumber":2,"parameterNumberName":"U-component_of_WINDS"},"data":[0,0,0,0,0,0,0,0,0,0,0,0,0,0,0,0,0,0,0,0,0,0,0,0,0,0,0,0,0,0,0,0,0,0,0,0,0,0,0,0,0,0,0,0,0,0,0,0,0,0,0,0,0,0,0,0,0,0,0.424,0.4241,0,0.4262,0.4263,0.4263,0.4262,0.4261,0.4261,0.4261,0.4282,0.4283,0.4284,0,0,0,0,0,0,0,0,0,0,0,0,0,0.4195,0.4196,0.424,0.4241,0.4241,0.4262,0.4263,0.4263,0.4262,0.4261,0.4261,0.4261,0.4282,0.4283,0.4284,0,0,0,0,0,0,0,0,0,0,0,0,0,0.4216,0.4196,0.424,0.4243,0.4243,0.4262,0.4263,0.4263,0.4262,0.4261,0.4261,0.4261,0.4282,0.4283,0.4284,0.4301,0,0,0.4288,0.4289,0,0,0,0,0,0,0,0,0.4215,0.4217,0.4242,0.4243,0.4243,0.4259,0.4254,0.4276,0.4262,0.4255,0.4261,0.426,0.4275,0.4277,0.4282,0.4302,0.4303,0.4288,0.4289,0.4289,0.429,0,0,0,0,0,0,0,0.4213,0.4216,0.4249,0.4243,0.4243,0.4242,0.4245,0.4259,0.4267,0.4255,0.4255,0.4258,0.4275,0.428,0.4282,0.4304,0.4288,0.4289,0.429,0.4291,0.4338,0.4338,0,0,0,0,0,0,0.4211,0.4215,0.4248,0.425,0.4228,0.4243,0.4246,0.4254,0.4267,0.4268,0.4258,0.4258,0.4278,0.4281,0.4283,0.4303,0.4289,0.4291,0.4291,0.4337,0.4338,0.4338,0,0,0,0,0,0,0.421,0.4214,0.4247,0.4232,0.4237,0.4245,0.4254,0.4255,0.426,0.4269,0.4271,0.4263,0.4278,0.4281,0.4296,0.4303,0.4291,0.4292,0.4337,0.4337,0.4338,0.4343,0,0,0,0,0,0,0.4209,0.4214,0.4221,0.4233,0.4237,0.4261,0.4254,0.4256,0.4263,0.4262,0.4274,0.4275,0.4278,0.4294,0.4298,0.4305,0.4293,0.4336,0.4337,0.4338,0.4342,0.4344,0.4345,0,0,0,0,0,0.4208,0.4222,0.4222,0.4226,0.4247,0.4262,0.4264,0.4268,0.4263,0.427,0.4276,0.4275,0.4302,0.4296,0.43,0.4307,0.4335,0.4337,0.4338,0.4342,0.4343,0.4345,0,0,0,0,0,0,0.4211,0.4224,0.4223,0.4242,0.4251,0.4261,0.427,0.427,0.428,0.4279,0.4283,0.4285,0.43,0.4306,0.4299,0.4324,0.4318,0.432,0.432,0.4322,0.4323,0.4321,0.4294,0,0,0,0,0,0.4214,0.4226,0.4236,0.4251,0.4256,0.4262,0.4269,0.4271,0.428,0.4283,0.429,0.4299,0.4309,0.4316,0.4326,0.4343,0.4345,0.435,0.4351,0.4353,0.4354,0.4362,0.4364,0.4342,0.4342,0.4342,0,0,0.422,0.4228,0.4236,0.4252,0.4259,0.427,0.4265,0.4278,0.4286,0.4285,0.43,0.4305,0.4314,0.433,0.4338,0.4335,0.436,0.4354,0.4355,0.4356,0.4363,0.4365,0.4367,0.4342,0.4342,0.4342,0,0,0.4237,0.4245,0.4258,0.4265,0.4276,0.428,0.4283,0.4293,0.4297,0.4311,0.4311,0.432,0.4339,0.4345,0.435,0.4368,0.4367,0.4371,0.4379,0.4386,0.4388,0.439,0.4395,0.4397,0.4373,0.4373,0.4373,0,0.4243,0.4261,0.4265,0.4277,0.4283,0.4283,0.4296,0.4302,0.4316,0.432,0.4317,0.4339,0.4345,0.4362,0.4366,0.4371,0.4374,0.437,0.4388,0.4389,0.4391,0.4396,0.4398,0.4373,0.4373,0.4373,0.4373,0,0.4267,0.4279,0.4288,0.43,0.4308,0.432,0.4325,0.4333,0.4334,0.4338,0.4352,0.436,0.4371,0.4375,0.4376,0.4391,0.4389,0.4387,0.4381,0.4393,0.4398,0.44,0.4374,0.4374,0.4374,0.4373,0,0,0.4287,0.4301,0.4304,0.4309,0.432,0.4329,0.4341,0.4352,0.4357,0.4366,0.4375,0.439,0.4388,0.4394,0.4396,0.4403,0.4415,0.4399,0.44,0.4401,0.443,0.4431,0.4433,0.4414,0.4415,0.4415,0.4429,0,0.4303,0.4325,0.4328,0.4346,0.4356,0.4356,0.4366,0.4373,0.4377,0.4386,0.439,0.44,0.4397,0.44,0.4407,0.4412,0.442,0.4411,0.4422,0.4422,0.4418,0.4436,0.4437,0.445,0.4431,0.4431,0.4432,0,0.4326,0.4335,0.4354,0.4363,0.4367,0.4376,0.4386,0.4395,0.4403,0.4405,0.4411,0.4412,0.4423,0.4417,0.4432,0.4425,0.443,0.4433,0.4433,0.4434,0.4427,0.4436,0.4455,0.4456,0.4435,0.4434,0.4434,0,0.4337,0.4354,0.4367,0.4372,0.4383,0.4389,0.4393,0.4401,0.4407,0.4415,0.4419,0.4428,0.4433,0.444,0.4443,0.4439,0.4457,0.4452,0.4458,0.4458,0.4462,0.4461,0.448,0.4466,0.4466,0.4466,0.4466,0,0.4355,0.4366,0.4372,0.438,0.4392,0.4396,0.4408,0.4412,0.4419,0.4427,0.4428,0.4435,0.4439,0.4447,0.4449,0.446,0.4463,0.4464,0.4465,0.4464,0.4463,0.4466,0.4465,0.4467,0.4466,0.4466,0.4466,0,0.4369,0.4373,0.4388,0.4396,0.4399,0.4407,0.4415,0.4422,0.4425,0.4436,0.4438,0.4444,0.4453,0.4457,0.4468,0.447,0.4482,0.4482,0.4479,0.4479,0.4485,0.4484,0.4506,0.4509,0.4494,0.4494,0.4494,0,0.4379,0.4388,0.4398,0.4403,0.4408,0.4417,0.4423,0.4426,0.4432,0.4442,0.4447,0.4457,0.4464,0.4479,0.4484,0.4492,0.4492,0.4499,0.4493,0.4491,0.4491,0.449,0.449,0.45,0.45,0.45,0.45,0,0.4397,0.4399,0.4408,0.4417,0.4424,0.4431,0.4438,0.4443,0.4447,0.4454,0.4463,0.4469,0.448,0.4489,0.4498,0.4502,0.4501,0.4502,0.4504,0.4503,0.45,0.45,0.4481,0.4501,0.4501,0.4501,0.4501,0.4501,0.4409,0.4416,0.4424,0.4433,0.4439,0.4445,0.4452,0.4456,0.4465,0.4474,0.4476,0.4485,0.4492,0.4503,0.4508,0.4515,0.4513,0.4516,0.4517,0.4517,0.4517,0.45,0.4517,0.4517,0.4517,0.4517,0.4517,0,0.4426,0.4431,0.4439,0.4449,0.4456,0.4455,0.4463,0.4469,0.4477,0.4484,0.4491,0.4501,0.451,0.4515,0.4523,0.4528,0.4528,0.453,0.4529,0.453,0.4519,0.4516,0.4529,0.4529,0.4529,0.4529,0.4529,0.4529,0.4436,0.4447,0.445,0.4464,0.4468,0.4478,0.4482,0.4488,0.4493,0.4504,0.4511,0.4514,0.452,0.4528,0.4536,0.4537,0.4539,0.4542,0.4542,0.4532,0.4531,0.4529,0.4527,0.4542,0.4542,0.4553,0.4553,0.4553]},{"header":{"parameterUnit":"m.s-1","parameterCategory":1,"la1":30.2991,"la2":30.254,"lo1":-89.0895,"lo2":-89.0444,"dy":0.0017,"dx":0.0017,"nx":28,"ny":28,"refTime":"2023-09-10T21:00:00:Z","depth":0,"parameterNumber":3,"parameterNumberName":"V-component_of_WINDS"},"data":[0,0,0,0,0,0,0,0,0,0,0,0,0,0,0,0,0,0,0,0,0,0,0,0,0,0,0,0,0,0,0,0,0,0,0,0,0,0,0,0,0,0,0,0,0,0,0,0,0,0,0,0,0,0,0,0,0,0,2.3514,2.3513,0,2.3476,2.3476,2.3476,2.3433,2.3432,2.3432,2.3431,2.3392,2.3392,2.3392,0,0,0,0,0,0,0,0,0,0,0,0,0,2.3547,2.3546,2.3514,2.3513,2.3513,2.3476,2.3476,2.3475,2.3433,2.3432,2.3431,2.3431,2.3393,2.3392,2.3392,0,0,0,0,0,0,0,0,0,0,0,0,0,2.3523,2.3546,2.3514,2.3487,2.3484,2.3477,2.3476,2.3475,2.3433,2.3432,2.3431,2.343,2.3393,2.3392,2.3391,2.3407,0,0,2.3389,2.3389,0,0,0,0,0,0,0,0,2.3525,2.3522,2.3492,2.3489,2.3486,2.3458,2.3473,2.3452,2.3433,2.3453,2.3431,2.343,2.3415,2.3413,2.3408,2.3405,2.3403,2.3389,2.3389,2.3389,2.3389,0,0,0,0,0,0,0,2.3526,2.3523,2.3499,2.3491,2.3488,2.3477,2.3472,2.3469,2.344,2.3451,2.3448,2.3444,2.3413,2.3408,2.3406,2.3402,2.3389,2.3389,2.3388,2.3388,2.3407,2.3408,0,0,0,0,0,0,2.3532,2.3525,2.35,2.3498,2.3503,2.3477,2.3472,2.3468,2.344,2.3434,2.3445,2.3442,2.341,2.3407,2.3405,2.3418,2.3389,2.3388,2.3388,2.3406,2.3407,2.3408,0,0,0,0,0,0,2.3533,2.353,2.3502,2.351,2.3506,2.3477,2.3473,2.3468,2.3463,2.3435,2.3429,2.3445,2.3409,2.3406,2.3406,2.3417,2.3388,2.3387,2.3405,2.3407,2.3408,2.3447,0,0,0,0,0,0,2.3534,2.3531,2.3537,2.3511,2.3506,2.3504,2.3474,2.3468,2.3462,2.3458,2.3434,2.3429,2.3408,2.3407,2.3405,2.3415,2.3387,2.3404,2.3406,2.3407,2.3445,2.345,2.3454,0,0,0,0,0,2.3535,2.355,2.3537,2.3534,2.3513,2.3505,2.3501,2.3477,2.3463,2.3468,2.345,2.343,2.3416,2.3407,2.3405,2.3415,2.3403,2.3405,2.3407,2.3443,2.3449,2.3454,0,0,0,0,0,0,2.3578,2.3546,2.3532,2.3538,2.3524,2.3497,2.3503,2.3485,2.3475,2.3471,2.3442,2.3437,2.344,2.3428,2.3418,2.3427,2.3407,2.3408,2.3434,2.344,2.3444,2.3446,2.3386,0,0,0,0,0,2.3588,2.3584,2.3557,2.3565,2.3559,2.3532,2.3528,2.3511,2.3495,2.3489,2.3471,2.3456,2.3448,2.3444,2.3435,2.3443,2.3436,2.3449,2.3453,2.3457,2.3458,2.3459,2.3464,2.3415,2.3415,2.3415,0,0,2.3609,2.3591,2.359,2.3573,2.356,2.3556,2.3528,2.3525,2.3522,2.3488,2.3487,2.3473,2.3454,2.3458,2.3459,2.3448,2.347,2.346,2.3463,2.3462,2.3462,2.3466,2.3471,2.3416,2.3416,2.3416,0,0,2.3644,2.3631,2.3635,2.3623,2.3604,2.3586,2.3587,2.3562,2.3552,2.355,2.3524,2.3519,2.3507,2.3494,2.3486,2.3515,2.3495,2.3513,2.3536,2.3538,2.3541,2.3545,2.3553,2.3556,2.3515,2.3515,2.3515,0,2.3672,2.3666,2.364,2.3639,2.3631,2.36,2.3604,2.3593,2.3572,2.3567,2.3555,2.3538,2.3523,2.3522,2.3529,2.3524,2.3523,2.3515,2.3543,2.3546,2.3549,2.3556,2.3559,2.3517,2.3517,2.3517,2.3516,0,2.37,2.3696,2.3702,2.3681,2.3675,2.3676,2.365,2.3646,2.3629,2.3612,2.3609,2.359,2.3576,2.3575,2.3559,2.3571,2.3565,2.3549,2.3528,2.3556,2.3562,2.3565,2.352,2.3519,2.3519,2.3518,0,0,2.376,2.3726,2.3728,2.3717,2.3694,2.3689,2.3689,2.3675,2.3671,2.3658,2.3655,2.3644,2.3629,2.362,2.3602,2.3603,2.3624,2.3586,2.3585,2.3592,2.3634,2.3645,2.3648,2.3611,2.3612,2.3612,2.3634,0,2.379,2.3786,2.3763,2.3766,2.3761,2.3731,2.373,2.3715,2.3699,2.3691,2.3674,2.3666,2.3647,2.3641,2.3641,2.3622,2.3632,2.362,2.3607,2.3607,2.3611,2.3652,2.3664,2.3686,2.3637,2.3637,2.3638,0,2.3824,2.3811,2.3814,2.3788,2.3785,2.3785,2.3769,2.3763,2.3744,2.3732,2.3721,2.3701,2.3697,2.3678,2.3671,2.3664,2.3657,2.3647,2.3647,2.3643,2.3623,2.3648,2.3692,2.3695,2.3642,2.3642,2.3641,0,2.3865,2.3849,2.3848,2.384,2.3811,2.3811,2.3799,2.3779,2.3772,2.3758,2.3753,2.3739,2.3731,2.372,2.3696,2.3685,2.3691,2.3671,2.3679,2.368,2.3681,2.3681,2.3723,2.368,2.368,2.368,2.368,0,2.3899,2.3901,2.3866,2.3865,2.3866,2.3838,2.384,2.3825,2.3808,2.3802,2.3776,2.3772,2.3741,2.3732,2.3714,2.3709,2.3707,2.3696,2.369,2.3697,2.3698,2.3691,2.3688,2.3681,2.368,2.368,2.368,0,2.3944,2.3921,2.3917,2.389,2.3883,2.3884,2.386,2.3858,2.384,2.3833,2.383,2.3802,2.3791,2.3766,2.3748,2.3735,2.3735,2.3726,2.3741,2.3737,2.3746,2.3745,2.3784,2.3787,2.3744,2.3744,2.3745,0,2.3967,2.3967,2.394,2.3934,2.3923,2.3915,2.3907,2.388,2.3873,2.3851,2.385,2.3837,2.3824,2.3807,2.3785,2.377,2.376,2.3775,2.3758,2.3764,2.3758,2.3757,2.3756,2.3778,2.3779,2.3779,2.378,0,2.4008,2.3996,2.3986,2.3971,2.3962,2.395,2.3935,2.3932,2.3902,2.3894,2.3882,2.3873,2.3854,2.384,2.3822,2.3808,2.3788,2.3785,2.3786,2.3792,2.38,2.3793,2.3749,2.3784,2.3784,2.3783,2.3783,2.3783,2.4041,2.404,2.4019,2.4008,2.3995,2.3982,2.3977,2.3959,2.3948,2.3931,2.3915,2.3904,2.3884,2.3857,2.3845,2.3835,2.3825,2.3827,2.3827,2.3827,2.3829,2.3803,2.3832,2.3831,2.3831,2.3831,2.3831,0,2.4079,2.4065,2.4055,2.4035,2.4026,2.4009,2.3992,2.3985,2.3976,2.3959,2.3947,2.3932,2.3918,2.3894,2.3878,2.3874,2.3864,2.3871,2.387,2.3866,2.384,2.384,2.3879,2.3879,2.3879,2.3879,2.3879,2.3879,2.4098,2.4094,2.408,2.4068,2.4053,2.4042,2.4033,2.402,2.4007,2.3991,2.3979,2.3964,2.3944,2.3926,2.3911,2.3905,2.3899,2.3908,2.3898,2.3873,2.3869,2.3864,2.3864,2.3907,2.3907,2.3925,2.3925,2.3925]}]]